Tracking 19476 objects as of 17-Jan-2019
HD Live streaming from Space Station
objects crossing your sky now

LEMUR 2 LISASAURUS

Track LEMUR 2 LISASAURUS now!
10-day predictions
LEMUR 2 LISASAURUS is classified as:


NORAD ID: 42780
Int'l Code: 2017-036R
Perigee: 496.4 km
Apogee: 514.7 km
Inclination: 97.4 °
Period: 94.6 minutes
Semi major axis: 6876 km
RCS: Unknown
Launch date: June 23, 2017
Source: United States (US)
Launch site: SRIHARIKOTA (SRI)
aabbcc
Your satellite tracking list
Your tracking list is empty




NASA's NSSDC Master Catalog

Two Line Element Set (TLE):
1 42780U 17036R   19017.20931165  .00000865  00000-0  40303-4 0  9996
2 42780  97.3753  78.3481 0013334  49.2174 311.0217 15.22458801 87072
Source of the keplerian elements: AFSPC